User: anonymous   Login
Location: Unspecified
(0.0000°N, 0.0000°E)
Time: 05:06:51
(UTC+00:00)
Language:

SO-67 - Orbit

View from above orbital plane
View from above orbital plane
View from above satellite
View from above satellite

Ground track
Ground track

The orbit data is extracted from the following two-line orbital elements,

1 35870U 09049F   17053.80858973  .00006440  00000-0  10842-3 0  9991
2 35870  97.1096  71.6346 0003991 107.0643  12.4352 15.52049201415474
Epoch (UTC): 22 February 2017 19:24:22
Eccentricity: 0.0003991
inclination: 97.1096°
perigee height: 408 km
apogee height: 413 km
right ascension of ascending node: 71.6346°
argument of perigee: 107.0643°
revolutions per day: 15.52049201
mean anomaly at epoch: 12.4352°
orbit number at epoch: 41547

The dashed part of the orbit path shows where the satellite is in the earth's shadow,  

DLR